Terminal Aerodrome Forecast
Issued by NWS Denver/Boulder, CO

Home | Current Version | Previous Version | Text Only | Print | Product List | Glossary On
Versions: 1 2 3 4 5 6 7 8 9 10 11 12 13 14 15 16 17 18 19 20 21 22 23 24 25 26 27 28 29 30 31 32 33 34 35 36 37 38 39 40 41 42 43 44 45 46 47 48 49 50
000
FTUS45 KBOU 241949 AAB
TAFDEN
TAF AMD
KDEN 241949Z 2420/2524 VRB06KT P6SM VCTS FEW090CB BKN120
      TEMPO 2420/2424 VRB20G35KT -TSRA BKN080CB
     FM250300 23010KT P6SM SCT090 BKN140 BKN220
     FM250500 20012KT P6SM FEW120 BKN220
     FM251600 07008KT P6SM FEW100 SCT220=

USA.gov is the U.S. government's official web portal to all federal, state and local government web resources and services.